Regional Weather Roundup
Issued by NWS Goodland, KS

Home | Current Version | Previous Version | Graphics & Text | Print | Product List | Glossary On
Versions: 1 2 3 4 5 6 7 8 9 10 11 12 13 14 15 16 17 18 19 20 21 22 23 24 25 26 27 28 29 30 31 32 33 34 35 36 37 38 39 40 41 42 43 44 45 46 47 48 49 50
000
ASUS43 KGLD 302008
RWRGLD

GOODLAND FORECAST AREA HOURLY WEATHER ROUNDUP
NATIONAL WEATHER SERVICE GOODLAND KS
200 PM MDT TUE SEP 30 2014

...OFFICIAL OBSERVATIONS...

CITY           SKY/WX    TMP DP  RH WIND       PRES   REMARKS
GOODLAND KS    SUNNY     72  43  35 SW8       29.79F
HILL CITY KS   SUNNY     78  52  40 SW3       29.74F
IMPERIAL NEB   SUNNY     74  40  29 SW14G22   29.76F
MCCOOK NEB     SUNNY     77  42  28 S8        29.74F
AKRON CO       SUNNY     67  36  31 VRB6      29.81F
BURLINGTON CO  SUNNY     70  37  29 CALM      29.80F
LIMON CO       MOSUNNY   67  36  31 NW13G22   29.84F
$$

...UNOFFICIAL OBSERVATIONS...

CITY           SKY/WX    TMP DP  RH WIND       PRES   REMARKS
COLBY KS       SUNNY     75  46  35 CALM      29.77F
GOVE KS          N/A     76  32  20 MISG        N/A
NORTON KS      SUNNY     79  41  25 SE8       29.73F
SHARON SPRINGS   N/A     73  46  38 SW5G12      N/A
WAKEENEY KS      N/A     78  51  39 MISG        N/A
KIT CARSON CO    N/A     70  43  37 MISG        N/A
YUMA CO          N/A     72  40  31 W8          N/A
$$



USA.gov is the U.S. government's official web portal to all federal, state and local government web resources and services.